Location: Bois de la Silve
(44.4667°N, 6.7833°E)
Time: 07:36:45
(UTC+00:00)

Cosmos 1184 Rocket - Pass Details

Date: 14 July 2020
Orbit: 408 x 422 km, 81.2° (Epoch: 14 August)

Event Time Altitude Azimuth Distance (km) Brightness Sun altitude
Exits shadow 00:50:05 54° 341° (NNW) 515 3.4 -21.9°
Drops below altitude 10° 00:52:46 10° 6° (N) 1,503 6.6 -21.8°
Sets 00:54:49 0° 9° (N) 2,374 8.0 -21.7°
